Weather History for Marianna, FL

Change the Weather History Date:

Saturday, December 29, 2012

  Actual Average Record
Temperature  
Mean Temperature 49 °F 50 °F  
Max Temperature 58 °F 61 °F 73 °F (2006)
Min Temperature 39 °F 39 °F 28 °F (2010)
Degree Days  
Heating Degree Days 16    
Month to date heating degree days 160  
Since 1 July heating degree days 449  
Cooling Degree Days 0    
Month to date cooling degree days 8  
Year to date cooling degree days 2751  
Moisture  
Dew Point 44 °F    
Average Humidity 80    
Maximum Humidity 100    
Minimum Humidity 60    
Precipitation  
Precipitation 0.63 in 0.11 in 1.12 in (2007)
Month to date precipitation 2.78 3.68  
Year to date precipitation 58.65 53.35  
Sea Level Pressure  
Sea Level Pressure 29.99 in    
Wind  
Wind Speed 12 mph (NW)    
Max Wind Speed 21 mph    
Max Gust Speed 29 mph    
Visibility 8 miles    
Events Rain    
T = Trace of Precipitation, MM = Missing Value Source: NWS Daily Summary

Daily Weather History Graph

Daily Weather History Graph

Search for Another Location

Airport:

Trip Planner

Search our weather history database for the weather conditions in past years. The results will help you decide how hot, cold, wet, or windy it might be!

Date:

Astronomy

Dec. 29, 2012 Rise Set
Actual Time 6:37 AM CST 4:48 PM CST
Civil Twilight 6:11 AM CST 5:14 PM CST
Nautical Twilight 5:41 AM CST 5:45 PM CST
Astronomical Twilight 5:11 AM CST 6:14 PM CST
Moon 6:13 PM CST (12/29) 7:16 AM CST (12/29)
Length of Visible Light 11h 03m
Length of Day
10h 10m
Full, 98% of the Moon is Illuminated
Dec 29
Full
Jan 4
Last Quarter
Jan 11
New
Jan 18
First Quarter
Jan 26
Full

Hourly Weather History & Observations

Time (CST) Temp. Windchill Dew Point Humidity Pressure Visibility Wind Dir Wind Speed Gust Speed Precip Events Conditions
12:42 AM 57.2 °F - 55.4 °F 94% 29.76 in 2.0 mi Variable 6.9 mph - 0.21 in Rain Heavy Rain
12:49 AM 55.4 °F - 53.6 °F 94% 29.79 in 1.5 mi NW 8.1 mph 28.8 mph 0.34 in Rain Heavy Rain
12:53 AM 55.0 °F - 54.0 °F 96% 29.79 in 1.5 mi WNW 15.0 mph 28.8 mph 0.36 in Rain Heavy Rain
1:02 AM 55.4 °F - 53.6 °F 94% 29.79 in 2.5 mi NW 9.2 mph - 0.06 in Rain Heavy Rain
1:21 AM 55.4 °F - 55.4 °F 100% 29.78 in 1.5 mi Calm Calm - 0.23 in Rain Heavy Rain
1:25 AM 55.4 °F - 55.4 °F 100% 29.77 in 2.0 mi Calm Calm - 0.24 in Rain Heavy Rain
1:40 AM 55.4 °F - 55.4 °F 100% 29.76 in 4.0 mi Calm Calm - 0.28 in Rain Light Rain
1:53 AM 55.9 °F - 55.0 °F 97% 29.76 in 6.0 mi Calm Calm - 0.28 in Rain Light Rain
2:18 AM 55.4 °F - 55.4 °F 100% 29.78 in 6.0 mi Calm Calm - 0.00 in   Overcast
2:37 AM 55.4 °F - 55.4 °F 100% 29.79 in 8.0 mi Calm Calm - 0.00 in   Overcast
2:53 AM 55.9 °F - 55.0 °F 97% 29.79 in 7.0 mi WSW 3.5 mph - 0.00 in   Mostly Cloudy
3:53 AM 57.0 °F - 55.0 °F 93% 29.82 in 10.0 mi WNW 15.0 mph 20.7 mph N/A   Overcast
4:25 AM 57.2 °F - 53.6 °F 88% 29.84 in 10.0 mi WNW 13.8 mph 19.6 mph N/A   Mostly Cloudy
4:53 AM 55.9 °F - 53.1 °F 90% 29.87 in 10.0 mi WNW 11.5 mph - N/A   Overcast
5:44 AM 53.6 °F - 50.0 °F 88% 29.92 in 10.0 mi NW 15.0 mph - 0.00 in   Overcast
5:53 AM 53.1 °F - 48.9 °F 86% 29.93 in 10.0 mi WNW 16.1 mph 23.0 mph 0.00 in   Overcast
6:53 AM 52.0 °F - 46.0 °F 80% 29.97 in 10.0 mi WNW 10.4 mph - N/A   Overcast
7:53 AM 51.1 °F - 44.1 °F 77% 30.00 in 10.0 mi NW 13.8 mph 20.7 mph N/A   Overcast
8:53 AM 48.9 °F - 42.1 °F 77% 30.05 in 10.0 mi NW 11.5 mph 19.6 mph N/A   Overcast
9:53 AM 48.9 °F - 41.0 °F 74% 30.07 in 10.0 mi WNW 13.8 mph 23.0 mph N/A   Overcast
10:53 AM 48.9 °F - 39.0 °F 69% 30.08 in 10.0 mi NW 17.3 mph - N/A   Overcast
11:53 AM 46.9 °F - 39.0 °F 74% 30.07 in 10.0 mi WNW 16.1 mph - N/A   Overcast
12:53 PM 46.0 °F 39.6 °F 37.0 °F 71% 30.08 in 10.0 mi NW 15.0 mph - N/A   Overcast
1:53 PM 45.0 °F 38.2 °F 36.0 °F 71% 30.09 in 10.0 mi WNW 15.0 mph - N/A   Overcast
2:53 PM 46.0 °F 39.6 °F 36.0 °F 68% 30.11 in 10.0 mi NW 15.0 mph - N/A   Overcast
3:37 PM 46.4 °F 40.7 °F 33.8 °F 62% 30.13 in 10.0 mi NW 12.7 mph 21.9 mph N/A   Scattered Clouds
3:53 PM 45.0 °F 38.5 °F 34.0 °F 65% 30.12 in 10.0 mi NW 13.8 mph - N/A   Partly Cloudy
5:53 PM 42.1 °F 34.5 °F 30.9 °F 65% 30.19 in 10.0 mi NW 15.0 mph 26.5 mph N/A   Scattered Clouds
6:53 PM 41.0 °F 34.7 °F 30.0 °F 65% 30.22 in 10.0 mi NW 10.4 mph 17.3 mph N/A   Overcast
7:53 PM 39.9 °F 32.1 °F 28.9 °F 65% 30.24 in 10.0 mi NNW 13.8 mph 19.6 mph N/A   Partly Cloudy
8:53 PM 39.9 °F 33.9 °F 28.0 °F 63% 30.27 in 10.0 mi NNW 9.2 mph - N/A   Mostly Cloudy
9:53 PM 41.0 °F 36.4 °F 28.9 °F 62% 30.29 in 10.0 mi NNW 6.9 mph - N/A   Overcast
10:53 PM 41.0 °F 33.9 °F 28.9 °F 62% 30.31 in 10.0 mi North 12.7 mph 18.4 mph N/A   Overcast
11:53 PM 39.0 °F 31.4 °F 27.0 °F 62% 30.31 in 10.0 mi NNW 12.7 mph - N/A   Overcast